{"data":{"norad_id":54087,"intl_designator":"2022-136AN","name":"STARLINK-5184","alt_names":[],"object_type":"PAYLOAD","status":"ACTIVE","operator":null,"country":"US","launch_date":"2022-10-20","launch_site_code":"AFETR","launch_vehicle":null,"mission":null,"orbit_class":"UNKNOWN","rcs_meters":null,"size_class":null,"mass_kg":null,"dimensions":null,"purposes":["comms"],"wikipedia_slug":null,"has_3d_model":false,"image_url":null,"decayed_at":null,"tle_current":{"epoch":"2026-05-24T23:03:59.751072Z","epoch_age_seconds":75544,"freshness":"FRESH","line1":"1 54087U 22136AN  26144.96110823  .00004423  00000+0  29602-3 0  9999","line2":"2 54087  53.2140 351.3656 0001303  93.1286 266.9855 15.08815566198505","mean_motion":15.08815566,"eccentricity":0.0001303,"inclination_deg":53.214,"raan_deg":351.3656,"arg_perigee_deg":93.1286,"mean_anomaly_deg":266.9855,"bstar":0.00029602,"rev_number":19850,"period_min":95.439100208753,"perigee_km":538.91666538875,"apogee_km":540.71948448128,"semimajor_km":6917.955074935,"source":"CELESTRAK","updated_at":"2026-05-25T13:38:17.654535Z"}}}